Home   Weather   Klaksvík   Past weeks

Flag for Faroe Islands Past Weather in Klaksvík, Faroe Islands, Faroe Islands — Yesterday and Last 2 Weeks

Now
49 °F

Fog.


Feels Like: 44 °F
Forecast: N/A
Wind: 12 mph from Northwest

Location: Thorshavn

Current Time: Dec 7, 2016 at 4:31:55 pm

Latest Report: Dec 7, 2016 at 3:00 pm


Visibility: 3 mi

Pressure: 29.35 "Hg

Humidity: 99%

Dew Point: 49 °F

Location of KlaksvíkLocation

Past Weather in Klaksvík — Graph

°F

Klaksvík Temperature Yesterday

Maximum temperature yesterday: 46 °F (at 8:00 am)
Minimum temperature yesterday: 40 °F (at 12:00 am)
Average temperature yesterday: 45 °F

High & Low Weather Summary for the Past Weeks

 TemperatureHumidityPressure
High51 °F (Nov 25, 9:00 am)100% (Dec 7, 12:00 am)30.49 "Hg (Dec 7, 12:00 am)
Low33 °F (Nov 23, 1:00 am)64% (Nov 22, 2:00 pm)29.38 "Hg (Dec 7, 2:00 pm)
Average45 °F85%30.09 "Hg
* Reported Nov 22 2:00 pm — Dec 7 2:00 pm, Klaksvík, Weather by CustomWeather, © 2016

Note: Actual official high and low records may vary slightly from our data, if they occured in-between our weather recording intervals... More about our weather records

Advertising

Klaksvík Weather History for the Previous 24 Hours

Scroll right to see more
 ConditionsComfort  
Time TempWeatherWind HumidityBarometerVisibility
2:00 pm
Wed, Dec 7
50 °FFog.6 mph98%29.38 "Hg2 mi
1:00 pm50 °FLow clouds.13 mph96%29.41 "Hg9 mi
12:00 pm49 °FFog.8 mph98%29.44 "Hg2 mi
11:00 am49 °FFog.7 mph99%29.47 "Hg3 mi
10:00 am49 °FLow clouds.5 mph100%29.47 "Hg1 mi
9:00 am48 °FFog.13 mph99%29.47 "Hg1 mi
8:00 am48 °FLow clouds.13 mph99%29.47 "Hg1 mi
7:00 am48 °FLow clouds.18 mph99%29.47 "Hg1 mi
6:00 am48 °FLight rain. Dense fog.20 mph99%29.47 "Hg1 mi
5:00 am49 °FFog.16 mph99%29.47 "Hg1 mi
4:00 am51 °FLow clouds.15 mph99%29.47 "Hg1 mi
3:00 am49 °FRain showers. Low clouds.5 mph100%29.50 "Hg1 mi
2:00 am48 °FDense fog.7 mph100%29.55 "Hg0 mi
1:00 am47 °FDrizzle. Dense fog.7 mph100%29.57 "Hg1 mi
12:00 am47 °FLight rain. Dense fog.6 mph100%29.63 "Hg1 mi
9:00 pm
Tue, Dec 6
44 °FDrizzle. Low clouds.13 mph97%29.76 "Hg3 mi
5:00 pm46 °FOvercast.14 mph84%29.89 "Hg28 mi
4:00 pm46 °FOvercast.9 mph86%29.92 "Hg19 mi
Weather by CustomWeather, © 2016

See weather overviewHow to use our weather pages